Regional Weather Roundup
Issued by NWS

Home | Current Version | Previous Version | Graphics & Text | Print | Product List | Glossary On
Versions: 1 2 3 4 5 6 7 8 9 10 11 12 13 14 15 16 17 18 19 20 21 22 23 24 25 26 27 28 29 30 31 32 33 34 35 36 37 38 39 40 41 42 43 44 45 46 47 48 49 50
000
ASUS43 KLSX 192207
RWRMO

WEATHER SUMMARY FOR MISSOURI
NATIONAL WEATHER SERVICE SPRINGFIELD MO
500 PM CDT SUN APR 19 2015

NOTE: "FAIR" INDICATES FEW OR NO CLOUDS BELOW 12,000 FEET WITH NO
       SIGNIFICANT WEATHER AND/OR OBSTRUCTIONS TO VISIBILITY.
       CURRENT SKY AND/OR WEATHER CONDITIONS ARE NOT AVAILABLE FOR
       CHILLICOTHE AND FARMINGTON.

MOZ001>031-035>038-043-044-053-054-192300-
...NORTHERN AND WESTERN MISSOURI...

CITY           SKY/WX    TMP DP  RH WIND       PRES   REMARKS
KANSAS CTY INT CLOUDY    55  50  83 NW18G26   29.63F
KANSAS C DTWN  CLOUDY    60  50  69 NW18G29   29.62S
LEE`S SUMMIT   PTSUNNY   62  52  69 NW18G28   29.62S
ST JOSEPH      CLOUDY    54  49  83 NW20      29.66S
CHILLICOTHE      N/A     61  54  77 W13G22    29.58S
KIRKSVILLE     CLOUDY    61  60  97 W7        29.52F

$$
MOZ066>068-077>081-088>096-101>105-192300-
...SOUTHWEST MISSOURI...

CITY           SKY/WX    TMP DP  RH WIND       PRES   REMARKS
SPRINGFIELD    PTSUNNY   63  51  65 SW8       29.60F
JOPLIN         MOSUNNY   66  53  63 NW7       29.63F

$$
MOZ032>034-039>042-045>050-055>058-069>072-192300-
...CENTRAL MISSOURI...

CITY           SKY/WX    TMP DP  RH WIND       PRES   REMARKS
COLUMBIA       CLOUDY    66  58  75 W14       29.54F
JEFFERSON CITY CLOUDY    67  57  70 W14       29.54F
ROLLA          LGT RAIN  65  54  67 W17G26    29.55S
SEDALIA        PTSUNNY   69  52  54 W13       29.56F
WHITEMAN AFB   PTSUNNY   69  53  55 NW16      29.55F
WARRENSBURG    PTSUNNY   63  52  67 W16G23    29.58S
OSAGE BEACH    PTSUNNY   70  52  52 W9G18     29.57F

$$
MOZ051-052-059>065-192300-
...EAST CENTRAL MISSOURI...

CITY           SKY/WX    TMP DP  RH WIND       PRES   REMARKS
ST LOUIS INTL  LGT RAIN  63  57  82 NW13      29.49F
SPIRIT OF STL  CLOUDY    61  58  90 W8        29.49F
ST CHARLES     LGT RAIN  61  58  90 W13       29.48F

$$
MOZ072>076-082>087-097>100-106>115-192300-
...SOUTH CENTRAL AND SOUTHEAST MISSOURI...

CITY           SKY/WX    TMP DP  RH WIND       PRES   REMARKS
CAPE GIRARDEAU CLOUDY    67  62  84 W13       29.52S
FARMINGTON     CLOUDY    64  57  77 W7        29.56F
POPLAR BLUFF   CLOUDY    62  56  80 SW7       29.54R
WEST PLAINS    MOSUNNY   72  49  44 W13G29    29.58F

$$



USA.gov is the U.S. government's official web portal to all federal, state and local government web resources and services.